{"data":{"norad_id":59152,"epoch":"2026-05-24T14:56:40.149024Z","epoch_age_seconds":107324,"freshness":"FRESH","line1":"1 59152U 24044A   26144.62268691  .00001433  00000+0  61578-4 0  9994","line2":"2 59152  43.0039 347.4998 0001511 269.4301  90.6378 15.27580321125791","mean_motion":15.27580321,"eccentricity":0.0001511,"inclination_deg":43.0039,"raan_deg":347.4998,"arg_perigee_deg":269.4301,"mean_anomaly_deg":90.6378,"bstar":6.1578e-5,"rev_number":12579,"period_min":94.266728904791,"perigee_km":482.01140977647,"apogee_km":484.08485992422,"semimajor_km":6861.1851348503,"source":"CELESTRAK","updated_at":"2026-05-25T13:38:18.832156Z"}}